Flag for Mongolia Weather past 2 weeks in Ulaanbaatar, Mongolia

Now
-11 °F

Clear.


Feels Like: -11 °F
Forecast: -18 / 12 °F
Wind: No wind

Location: Ulan-Bator

Current Time: Dec 21, 2014 at 9:13:55 AM

Latest Report: Dec 21, 2014 at 9:00 AM


Visibility: 10 mi

Pressure: 30.21 "Hg

Humidity: 76%

Dew point: -17 °F

Location of UlaanbaatarLocation

Historic Weather in Ulaanbaatar — Graph

°F

Ulaanbaatar temperature yesterday

Maximum temperature yesterday: 3 °F (at 3:00 PM)
Minimum temperature yesterday: -24 °F (at 7:00 AM)
Average temperature yesterday: -9 °F

Past Weeks' High & Low Weather Summary

 TemperatureHumidityPressure
High16 °F (Dec 17, 2:30 PM)85% (Dec 7, 12:00 PM)30.39 "Hg (Dec 7, 12:00 PM)
Low-24 °F (Dec 20, 7:00 AM)47% (Dec 6, 11:00 AM)29.92 "Hg (Dec 18, 12:00 AM)
Average-3 °F73%30.18 "Hg
* Reported Dec 6 8:00 AM — Dec 21 8:30 AM, Ulaanbaatar, Weather by CustomWeather, © 2014

Note: Actual official high and low records may vary slightly from our data, if they occured in-between our weather recording intervals... More about our weather records

Advertising

Ulaanbaatar weather history for previous 24 hours

 ConditionsComfort  
Time TempWeatherWind HumidityBarometerVisibility
8:30 AM
Dec 21
-9 °FClear.No wind77%30.21 "Hg10 mi
8:00 AM-9 °FClear.No wind84%30.21 "Hg10 mi
7:30 AM-9 °FClear.1 mph84%30.21 "Hg10 mi
7:00 AM-6 °FClear.1 mph77%30.21 "Hg10 mi
6:30 AM-6 °FClear.1 mph77%30.21 "Hg10 mi
6:00 AM-9 °FClear.3 mph77%30.21 "Hg10 mi
5:30 AM-8 °FClear.1 mph77%30.21 "Hg10 mi
5:00 AM-4 °FClear.No wind77%30.21 "Hg10 mi
4:30 AM-2 °FClear.1 mph71%30.21 "Hg10 mi
4:00 AM0 °FClear.No wind78%30.24 "Hg10 mi
3:30 AM0 °FPassing clouds.No wind78%30.24 "HgN/A
3:00 AM0 °FPassing clouds.1 mph78%30.24 "HgN/A
2:30 AM0 °FPassing clouds.1 mph78%30.24 "HgN/A
2:00 AM1 °FPassing clouds.1 mph78%30.24 "HgN/A
1:30 AM1 °FPassing clouds.1 mph78%30.24 "HgN/A
1:00 AM0 °FPassing clouds.No wind78%30.24 "HgN/A
12:30 AM0 °FPassing clouds.No wind78%30.27 "HgN/A
12:00 AM0 °FPassing clouds.No wind78%30.27 "HgN/A
11:30 PM
Dec 20
-2 °FPassing clouds.No wind77%30.27 "HgN/A
11:00 PM-2 °FPassing clouds.1 mph77%30.27 "HgN/A
10:30 PM-6 °FPassing clouds.No wind84%30.30 "HgN/A
10:00 PM-8 °FPassing clouds.No wind77%30.30 "HgN/A
9:30 PM-2 °FPassing clouds.No wind77%30.30 "HgN/A
9:00 PM-4 °FLight snow. Passing clouds.1 mph77%30.30 "HgN/A
8:30 PM-4 °FPassing clouds.1 mph77%30.33 "HgN/A
8:00 PM-2 °FClear.3 mph71%30.33 "Hg10 mi
7:30 PM-4 °FClear.6 mph71%30.33 "Hg10 mi
7:00 PM-6 °FClear.6 mph70%30.33 "Hg10 mi
6:30 PM-8 °FPassing clouds.6 mph77%30.33 "HgN/A
6:00 PM-2 °FScattered clouds.No wind65%30.33 "HgN/A
5:30 PM-4 °FScattered clouds.3 mph71%30.33 "HgN/A
5:00 PM-2 °FScattered clouds.3 mph65%30.33 "HgN/A
4:30 PM3 °FScattered clouds.1 mph60%30.33 "HgN/A
4:00 PM3 °FScattered clouds.1 mph60%30.33 "HgN/A
3:30 PM3 °FScattered clouds.1 mph55%30.33 "HgN/A
3:00 PM3 °FPartly sunny.No wind55%30.33 "HgN/A
2:30 PM1 °FPartly sunny.1 mph60%30.33 "HgN/A
2:00 PM0 °FPartly sunny.3 mph65%30.33 "HgN/A
1:30 PM0 °FPartly sunny.6 mph65%30.33 "HgN/A
1:00 PM0 °FPartly sunny.1 mph65%30.33 "HgN/A
12:30 PM0 °FSunny.1 mph65%30.33 "Hg10 mi
12:00 PM-4 °FSunny.1 mph77%30.36 "Hg10 mi
11:30 AM-8 °FSunny.No wind84%30.36 "Hg10 mi
11:00 AM-11 °FSunny.1 mph76%30.36 "Hg10 mi
10:30 AM-13 °FSunny.No wind76%30.36 "Hg10 mi
10:00 AM-15 °FSunny.1 mph76%30.36 "Hg10 mi
9:30 AM-18 °FClear.No wind75%30.36 "Hg10 mi
9:00 AM-20 °FClear.No wind68%30.36 "Hg10 mi
Weather by CustomWeather, © 2014

See weather overviewHow to use our weather pages